TimeCDT,TemperatureF,Dew PointF,Humidity,Sea Level PressureIn,VisibilityMPH,Wind Direction,Wind SpeedMPH,Gust SpeedMPH,PrecipitationIn,Events,Conditions,WindDirDegrees,DateUTC
12:53 AM,54.0,36.0,51,29.91,10.0,North,4.6,-,N/A,,Mostly Cloudy,360,2012-10-14 05:53:00
1:53 AM,54.0,37.0,53,29.91,10.0,North,9.2,-,N/A,,Overcast,350,2012-10-14 06:53:00
2:53 AM,48.9,35.1,59,29.92,10.0,NW,9.2,-,N/A,,Scattered Clouds,320,2012-10-14 07:53:00
3:53 AM,46.0,35.1,66,29.93,10.0,WNW,9.2,-,N/A,,Clear,290,2012-10-14 08:53:00
4:53 AM,46.0,37.9,73,29.94,10.0,WNW,9.2,-,N/A,,Clear,300,2012-10-14 09:53:00
5:53 AM,43.0,36.0,76,29.96,10.0,WNW,9.2,-,N/A,,Clear,300,2012-10-14 10:53:00
6:53 AM,44.1,36.0,73,29.97,10.0,WNW,11.5,-,N/A,,Clear,300,2012-10-14 11:53:00
7:53 AM,43.0,35.1,74,29.97,10.0,WNW,10.4,-,N/A,,Clear,290,2012-10-14 12:53:00
8:53 AM,48.0,39.0,71,29.98,10.0,WNW,8.1,-,N/A,,Clear,290,2012-10-14 13:53:00
9:53 AM,55.0,37.9,53,29.99,10.0,NW,10.4,-,N/A,,Clear,310,2012-10-14 14:53:00
10:53 AM,57.9,37.0,46,29.98,10.0,West,10.4,-,N/A,,Scattered Clouds,280,2012-10-14 15:53:00
11:53 AM,63.0,37.0,38,29.97,10.0,WNW,12.7,-,N/A,,Clear,290,2012-10-14 16:53:00
12:53 PM,66.0,37.0,34,29.95,10.0,NW,11.5,-,N/A,,Clear,310,2012-10-14 17:53:00
1:53 PM,68.0,39.0,35,29.93,10.0,WNW,11.5,-,N/A,,Clear,300,2012-10-14 18:53:00
3:53 PM,73.0,36.0,26,29.89,10.0,WNW,21.9,26.5,N/A,,Clear,300,2012-10-14 20:53:00
4:53 PM,72.0,33.1,24,29.90,10.0,WNW,19.6,27.6,N/A,,Partly Cloudy,300,2012-10-14 21:53:00
5:53 PM,70.0,33.1,26,29.90,10.0,NW,16.1,-,N/A,,Clear,320,2012-10-14 22:53:00
6:53 PM,63.0,33.1,33,29.91,10.0,NW,9.2,-,N/A,,Clear,320,2012-10-14 23:53:00
7:53 PM,54.0,33.1,45,29.93,10.0,NNW,8.1,-,N/A,,Clear,340,2012-10-15 00:53:00
8:53 PM,53.1,33.1,47,29.93,10.0,NW,8.1,-,N/A,,Clear,320,2012-10-15 01:53:00
9:53 PM,51.1,30.9,46,29.94,10.0,Calm,Calm,-,N/A,,Clear,0,2012-10-15 02:53:00
10:53 PM,50.0,33.1,52,29.94,10.0,SW,6.9,-,N/A,,Clear,230,2012-10-15 03:53:00
11:53 PM,46.0,30.9,56,29.93,10.0,Calm,Calm,-,N/A,,Clear,0,2012-10-15 04:53:00